Back to catalog

NOAA 16 DEB

AlivePO
NORAD 41207·DEBRIS·🇺🇸 United States

Launched Sep 21, 2000 from Vandenberg Space Force Base

Loading…

Next Passes (next 24 hours)

TLE

FreshSource: Space-Track

Epoch: Sep 14, 2026, 05:39 UTC

1 41207U 00055DL  26257.23576132  .00018020  00000-0  20668-2 0  9990
2 41207  98.8942 173.2365 0029146 340.7292  19.2815 14.85649355565701

Track NOAA 16 DEB in real time with AllMySat

Download on the App Store